Location: Palomar Mountain Lodge
(33.3110°N, 116.8495°W)
Time: 10:00:32
(UTC-07:00)

ARGOS - Pass Details

Date: 14 June 2018
Orbit: 821 x 834 km, 98.6° (Epoch: 16 October)

Event Time Altitude Azimuth Distance (km) Brightness Sun altitude
Exits shadow 21:25:40 23° 149° (SSE) 1,706 4.2 -15.7°
Maximum altitude 21:29:03 64° 74° (ENE) 918 3.2 -16.2°
Drops below altitude 10° 21:34:25 10° 354° (N) 2,446 6.3 -17.0°
Sets 21:36:47 0° 352° (N) 3,383 7.2 -17.4°
